[[{"header":{"parameterUnit":"m.s-1","parameterCategory":1,"la1":30.2992,"la2":30.254,"lo1":-89.0895,"lo2":-89.0443,"dy":0.0025,"dx":0.0025,"nx":19,"ny":19,"refTime":"2026-04-22T03:00:00:Z","depth":0,"parameterNumber":2,"parameterNumberName":"U-component_of_WINDS"},"data":[0,0,0,-4.2943,-4.2944,-4.2961,-4.2961,-4.2991,-4.2992,0,0,0,0,0,0,0,0,0,0,0,-4.2942,-4.2943,-4.2943,-4.2944,-4.2961,-4.2961,-4.2991,-4.2992,0,0,0,0,0,0,0,0,0,0,0,-4.2942,-4.2943,-4.2943,-4.2944,-4.2961,-4.2961,-4.2991,-4.2975,0,0,0,0,0,0,0,0,0,0,-4.2957,-4.2961,-4.2943,-4.2943,-4.2944,-4.2961,-4.2961,-4.2974,-4.2976,-4.2987,0,-4.2997,0,-4.2995,-4.2994,-4.2995,0,0,0,-4.294,-4.2959,-4.296,-4.2943,-4.2944,-4.2961,-4.2952,-4.2975,-4.2978,-4.299,-4.2998,-4.2999,-4.2996,-4.2995,-4.2995,-4.3068,-4.3069,0,0,-4.2939,-4.2948,-4.2958,-4.2962,-4.2959,-4.2952,-4.2953,-4.2977,-4.2986,-4.2998,-4.2999,-4.2996,-4.2995,-4.2995,-4.3068,-4.3068,0,0,0,-4.2939,-4.2947,-4.2947,-4.296,-4.2963,-4.2952,-4.2954,-4.2985,-4.2984,-4.3,-4.2997,-4.2995,-4.2996,-4.3067,-4.3068,-4.3101,0,0,0,-4.2938,-4.2947,-4.2947,-4.2953,-4.2963,-4.2974,-4.2962,-4.2983,-4.2985,-4.2996,-4.2995,-4.2996,-4.3066,-4.3067,-4.3099,-4.3115,0,0,0,-4.294,-4.2947,-4.2951,-4.2953,-4.2961,-4.2974,-4.2974,-4.2983,-4.2984,-4.2995,-4.2996,-4.3066,-4.3067,-4.3097,-4.3112,-4.3136,0,0,0,-4.2944,-4.298,-4.2952,-4.2992,-4.2961,-4.2995,-4.2974,-4.2998,-4.3012,-4.2995,-4.3067,-4.3068,-4.3096,-4.311,-4.3134,-4.3158,-4.3169,0,0,-4.2995,-4.2987,-4.301,-4.2985,-4.3026,-4.2991,-4.3037,-4.3041,-4.3034,-4.3057,-4.3059,-4.31,-4.3111,-4.3136,-4.3229,-4.3238,0,0,0,-4.3029,-4.3045,-4.3054,-4.3068,-4.3072,-4.3077,-4.3073,-4.3075,-4.3094,-4.3048,-4.3116,-4.3122,-4.3136,-4.3147,-4.3154,-4.3165,-4.3073,-4.3073,-4.3073,-4.3112,-4.3102,-4.3139,-4.3131,-4.3145,-4.3142,-4.3152,-4.3153,-4.3138,-4.3155,-4.3161,-4.3219,-4.3232,-4.3237,-4.3249,-4.3174,-4.3174,-4.3174,-4.3174,-4.3185,-4.3206,-4.3187,-4.3216,-4.3206,-4.323,-4.3229,-4.3218,-4.3239,-4.3213,-4.3225,-4.3196,-4.3247,-4.3257,-4.3177,-4.3176,-4.3176,-4.3176,-4.3175,-4.3237,-4.3245,-4.3248,-4.3267,-4.3284,-4.3275,-4.3296,-4.3286,-4.3276,-4.3288,-4.3293,-4.3293,-4.329,-4.3292,-4.3292,-4.3292,-4.3292,-4.3293,-4.3293,-4.329,-4.3291,-4.3311,-4.332,-4.3328,-4.3337,-4.3335,-4.3343,-4.3348,-4.3339,-4.3339,-4.3322,-4.3255,-4.3237,-4.3296,-4.3295,-4.3295,-4.3295,-4.3294,-4.3365,-4.3347,-4.3376,-4.3385,-4.3395,-4.3412,-4.3399,-4.3416,-4.3421,-4.3432,-4.3414,-4.3365,-4.3356,-4.335,-4.3335,-4.3416,-4.3416,-4.3416,-4.3416,-4.3408,-4.3403,-4.3432,-4.3446,-4.3458,-4.345,-4.3484,-4.3484,-4.348,-4.3483,-4.347,-4.345,-4.3445,-4.3439,-4.3431,-4.3417,-4.3516,-4.3517,-4.3517,-4.3453,-4.345,-4.348,-4.3477,-4.3485,-4.3492,-4.3524,-4.3541,-4.3533,-4.3521,-4.3484,-4.348,-4.3448,-4.3438,-4.3423,-4.3411,-4.3385,0,0]},{"header":{"parameterUnit":"m.s-1","parameterCategory":1,"la1":30.2992,"la2":30.254,"lo1":-89.0895,"lo2":-89.0443,"dy":0.0025,"dx":0.0025,"nx":19,"ny":19,"refTime":"2026-04-22T03:00:00:Z","depth":0,"parameterNumber":3,"parameterNumberName":"V-component_of_WINDS"},"data":[0,0,0,4.2399,4.2399,4.243,4.2431,4.2462,4.2462,0,0,0,0,0,0,0,0,0,0,0,4.2386,4.2386,4.2399,4.2399,4.243,4.2431,4.2462,4.2462,0,0,0,0,0,0,0,0,0,0,0,4.2386,4.2386,4.2386,4.2399,4.243,4.2431,4.2462,4.2441,0,0,0,0,0,0,0,0,0,0,4.2412,4.2397,4.2386,4.2386,4.24,4.243,4.2431,4.244,4.2442,4.2445,0,4.2448,0,4.2456,4.2464,4.2464,0,0,0,4.2401,4.2395,4.2407,4.2386,4.24,4.243,4.2417,4.2442,4.2444,4.2448,4.2448,4.2449,4.2456,4.2464,4.2465,4.2477,4.2477,0,0,4.24,4.2388,4.2405,4.2408,4.2405,4.2416,4.2418,4.2443,4.2442,4.2448,4.245,4.2457,4.2465,4.2465,4.2477,4.2477,0,0,0,4.2393,4.2387,4.2399,4.2407,4.2413,4.2417,4.2419,4.2441,4.2446,4.2451,4.2457,4.2465,4.2465,4.2477,4.2477,4.2465,0,0,0,4.2392,4.2383,4.2398,4.2391,4.2413,4.2428,4.2416,4.2444,4.2447,4.2457,4.2465,4.2465,4.2477,4.2477,4.2465,4.246,0,0,0,4.2385,4.2383,4.2386,4.2391,4.2404,4.2427,4.2434,4.2445,4.2451,4.2464,4.2465,4.2477,4.2477,4.2466,4.2461,4.2461,0,0,0,4.2373,4.2373,4.2386,4.2388,4.2404,4.242,4.2434,4.2446,4.2456,4.2465,4.2477,4.2477,4.2466,4.2461,4.2461,4.2459,4.2457,0,0,4.2366,4.2372,4.2374,4.2387,4.2399,4.2417,4.2426,4.2445,4.2455,4.2469,4.2469,4.2465,4.2461,4.2461,4.2451,4.2449,0,0,0,4.2368,4.237,4.2376,4.2386,4.2402,4.2416,4.2435,4.2442,4.2455,4.246,4.2465,4.2463,4.2464,4.2463,4.2462,4.2463,4.2476,4.2476,4.2476,4.2342,4.2358,4.2364,4.2384,4.2394,4.2416,4.2425,4.2438,4.2449,4.245,4.2454,4.2446,4.2445,4.2444,4.2445,4.2454,4.2454,4.2454,4.2454,4.2334,4.2339,4.2358,4.237,4.2387,4.2397,4.2418,4.2426,4.2437,4.2444,4.2445,4.2451,4.2442,4.2444,4.2453,4.2453,4.2453,4.2453,4.2453,4.2318,4.2324,4.2335,4.2354,4.2366,4.2387,4.2398,4.2412,4.2425,4.2427,4.2433,4.2433,4.2435,4.2429,4.2429,4.2429,4.2429,4.2429,4.2429,4.2297,4.231,4.2319,4.2339,4.2349,4.2364,4.2387,4.2397,4.2411,4.242,4.242,4.2432,4.2438,4.244,4.2428,4.2428,4.2428,4.2428,4.2428,4.2283,4.2289,4.2303,4.2313,4.2339,4.2351,4.2371,4.239,4.24,4.2405,4.2417,4.242,4.2425,4.2426,4.2427,4.2413,4.2413,4.2413,4.2413,4.2269,4.2275,4.2293,4.2309,4.2327,4.2347,4.2361,4.238,4.2399,4.2407,4.2411,4.2414,4.2415,4.242,4.2421,4.2423,4.2408,4.2408,4.2408,4.2262,4.227,4.228,4.2302,4.2324,4.2342,4.2357,4.2374,4.2397,4.2408,4.2413,4.2413,4.2418,4.2419,4.2428,4.243,4.2433,0,0]}]]